Airfield :
LOGIN :

Register | Disclaimer

   EN    FR    IT 

 










Legend :    VFR   Marginal VFR   IFR   Intensive IFR   Very Intensive IFR
Visi :
Ceiling :
>= 8 km
>= 3000ft
5 to 8 km
1000 to 3000 ft
1500m to 5 km
500 to 1000 ft
800 to 1500m
200 to 500 ft
< 800m
< 200 ft
Symbols :   Thunderstorms  Fog  Heavy snow  Heavy precipitations  Wind > 20 kt
SIGMETs :     Misc.  Thunderstorms  Icing  Turbulence  Mountain Waves  Volcanic Ashes







- Airport Elevation : 200 ft


EBBL - Klein Brogel AB

CURRENT METAR :
  • 231355Z AUTO VRB01KT 9999 OVC037/// 18/08 Q1027 BLU

EXPIRED METARs :
  • 231325Z AUTO 31004KT 9999 OVC036/// 18/09 Q1027 BLU
  • 231255Z AUTO 29005KT 9999 SCT035/// BKN056/// 18/09 Q1027 BLU
  • 231225Z AUTO 33005KT 9999 OVC033/// 18/09 Q1028 BLU
  • 231155Z AUTO 32005KT 9999 OVC032/// 18/09 Q1028 BLU
  • 231125Z AUTO 30003KT 9999 OVC031/// 17/08 Q1028 BLU

Expired Forecast.
No reported NOTAMs for that airfield.



MET'MAP, your aeronautical weather chart ! - Copyright ORBIFLY December 2007 - Disclaimer

ORBIFLY MET'MAP TEAM :

Programming & Development : Alexandra Zaïnal
Concept & Development : Baudouin d'Aumeries
Co-Development & Prog : Marc-Olivier Méhu
Technical & hardware support : Manuel Goepfert

Contact : metmap@orbifly.com




SOURCES & CREDITS :

   NOAA